CW3684 Weather Reports


Display with metric or nautical units.
time (UTC)temp
F
wind
direction
speed
MPH
gust
MPH
rain 1hr
in
rain 24hr
in
rain mn
in
humidity
%
barometer
mb
20260901214523 56 299 3.0 13.0 0.00 0.00 0.00 54 1003.1
20260901213022 55 41 4.0 11.0 0.00 0.00 0.00 49 1003.2
20260901211532 56 279 5.0 11.0 0.00 0.00 0.00 49 1003.2
20260901210015 55 46 3.0 10.0 0.00 0.00 0.00 49 1003.2
20260901204520 55 17 5.0 11.0 0.00 0.00 0.00 50 1003.3
20260901203017 55 16 4.0 12.0 0.00 0.00 0.00 50 1003.3
20260901201509 54 15 5.0 15.0 0.00 0.00 0.00 56 1003.4
20260901200010 54 121 5.0 7.0 0.00 0.00 0.00 58 1003.3
20260901194502 54 71 3.0 9.0 0.00 0.01 0.00 61 1003.6
20260901193111 53 119 4.0 9.0 0.00 0.01 0.00 62 1003.6
20260901191554 52 94 6.0 9.0 0.00 0.01 0.00 65 1003.8
20260901190050 50 101 6.0 11.0 0.00 0.01 0.00 67 1003.9
20260901184548 49 101 5.0 8.0 0.00 0.02 0.00 70 1003.9
20260901183043 47 114 6.0 9.0 0.00 0.02 0.00 71 1003.9
20260901181541 47 107 6.0 12.0 0.00 0.02 0.00 72 1004.0
20260901180034 45 287 1.0 7.0 0.00 0.02 0.00 72 1004.0
20260901174530 44 287 1.0 6.0 0.00 0.02 0.00 73 1004.1
20260901173033 44 319 2.0 7.0 0.00 0.02 0.00 74 1004.2
20260901171522 42 302 1.0 4.0 0.00 0.02 0.00 76 1004.1
20260901170051 41 326 3.0 7.0 0.00 0.02 0.00 78 1004.3
20260901164514 40 293 4.0 8.0 0.00 0.02 0.00 79 1004.2
20260901163021 39 16 2.0 6.0 0.00 0.02 0.00 80 1004.2
20260901161504 38 311 4.0 12.0 0.00 0.02 0.00 83 1004.1
20260901160101 37 355 2.0 10.0 0.00 0.02 0.00 84 1004.0
20260901154606 36 272 4.0 12.0 0.00 0.02 0.00 84 1004.0
20260901153052 36 305 6.0 11.0 0.00 0.02 0.00 84 1003.8
20260901151553 36 312 7.0 14.0 0.00 0.02 0.00 85 1003.7
20260901150058 35 289 9.0 15.0 0.00 0.02 0.00 85 1003.7
20260901144545 35 302 6.0 12.0 0.00 0.03 0.00 84 1003.8
20260901143040 36 304 6.0 11.0 0.00 0.03 0.00 84 1003.7
20260901141539 36 294 6.0 16.0 0.00 0.03 0.00 83 1003.7
20260901140040 36 296 11.0 18.0 0.00 0.03 0.00 84 1003.5
20260901134538 35 287 11.0 18.0 0.00 0.04 0.00 84 1003.6
20260901133032 35 288 12.0 18.0 0.00 0.04 0.00 84 1003.5
20260901131541 35 280 12.0 18.0 0.00 0.04 0.00 84 1003.4
20260901130027 35 292 11.0 19.0 0.00 0.04 0.00 84 1003.4
20260901124525 35 288 10.0 18.0 0.00 0.05 0.00 84 1003.5
20260901123031 35 290 10.0 17.0 0.00 0.05 0.00 84 1003.4
20260901121523 35 283 10.0 17.0 0.00 0.05 0.00 84 1003.2
20260901120020 35 286 12.0 18.0 0.00 0.05 0.00 84 1003.1
20260901114534 35 304 11.0 17.0 0.00 0.06 0.00 84 1003.1
20260901113021 36 292 10.0 17.0 0.00 0.06 0.00 84 1003.1
20260901111515 36 291 11.0 17.0 0.00 0.06 0.00 83 1002.9
20260901110012 36 286 11.0 17.0 0.00 0.06 0.00 83 1002.7
20260901104510 36 300 11.0 16.0 0.00 0.07 0.00 83 1002.7
20260901103015 36 311 10.0 16.0 0.00 0.07 0.00 82 1002.4
20260901101503 37 294 9.0 14.0 0.00 0.07 0.00 81 1002.3
20260901100005 37 289 10.0 17.0 0.00 0.07 0.00 80 1002.2
20260901094600 37 284 11.0 20.0 0.00 0.08 0.00 80 1002.1
20260901093055 38 291 10.0 17.0 0.00 0.08 0.00 79 1002.1
20260901091555 38 284 11.0 17.0 0.00 0.08 0.00 78 1001.8
20260901090048 39 288 9.0 18.0 0.00 0.08 0.00 77 1001.6
20260901084556 39 277 11.0 17.0 0.00 0.09 0.00 76 1001.4
20260901083143 39 315 10.0 18.0 0.00 0.09 0.00 76 1001.4
20260901081541 40 300 12.0 18.0 0.00 0.09 0.00 76 1001.2
20260901080042 40 315 10.0 18.0 0.00 0.09 0.00 75 1001.1
20260901074536 40 294 11.0 16.0 0.00 0.09 0.09 75 1001.0
20260901073033 40 289 9.0 18.0 0.00 0.09 0.09 74 1000.9
20260901071532 40 311 10.0 17.0 0.00 0.09 0.09 73 1000.7
20260901070033 41 292 10.0 16.0 0.00 0.09 0.09 73 1000.6
20260901064528 41 293 8.0 16.0 0.00 0.09 0.09 72 1000.5
20260901063026 41 294 9.0 14.0 0.00 0.09 0.09 71 1000.3
20260901061524 42 294 5.0 12.0 0.00 0.09 0.09 70 1000.0
20260901060023 43 295 5.0 11.0 0.00 0.09 0.09 68 999.8
20260901054522 44 298 7.0 18.0 0.00 0.09 0.09 67 999.7
20260901053020 44 321 5.0 14.0 0.00 0.09 0.09 67 999.6
20260901051519 45 290 5.0 14.0 0.00 0.09 0.09 65 999.5
20260901050019 45 355 4.0 10.0 0.00 0.09 0.09 63 999.3
20260901044527 46 355 4.0 11.0 0.00 0.09 0.09 64 999.1
20260901043021 46 44 3.0 8.0 0.00 0.09 0.09 64 999.0
20260901041517 46 303 4.0 10.0 0.00 0.09 0.09 64 998.6
20260901040017 46 355 3.0 13.0 0.00 0.09 0.09 65 998.4
20260901034529 47 309 4.0 14.0 0.00 0.09 0.09 67 998.1
20260901033015 47 292 7.0 18.0 0.00 0.09 0.09 65 997.8
20260901031513 48 284 8.0 15.0 0.00 0.09 0.09 63 997.6
20260901030013 49 304 4.0 14.0 0.00 0.09 0.09 65 997.2
20260901024512 50 305 5.0 16.0 0.00 0.09 0.09 63 997.0
20260901023011 50 300 7.0 17.0 0.00 0.09 0.09 59 996.6
20260901021515 51 360 4.0 15.0 0.00 0.09 0.09 57 996.4
20260901020010 51 292 4.0 15.0 0.00 0.09 0.09 58 996.1
20260901014509 51 114 6.0 15.0 0.00 0.09 0.09 59 995.7
20260901013009 51 275 9.0 22.0 0.00 0.09 0.09 59 995.2
20260901011512 50 331 8.0 21.0 0.00 0.09 0.09 60 995.0
20260901010009 51 355 7.0 21.0 0.00 0.09 0.09 60 994.7
20260901004505 51 67 6.0 22.0 0.00 0.09 0.09 60 994.4
20260901003004 51 96 7.0 16.0 0.00 0.09 0.09 61 994.2
20260901001502 51 19 8.0 17.0 0.00 0.09 0.09 62 994.0
20260901000106 50 51 5.0 16.0 0.00 0.09 0.09 66 993.8
20260831234555 50 340 9.0 18.0 0.00 0.09 0.09 69 993.7
20260831233055 49 32 3.0 14.0 0.00 0.09 0.09 71 993.6
20260831231600 49 58 7.0 18.0 0.00 0.09 0.09 70 993.3
20260831230056 49 49 9.0 34.0 0.00 0.09 0.09 70 992.9
20260831224552 50 45 13.0 27.0 0.00 0.09 0.09 74 992.8
20260831223050 49 327 6.0 16.0 0.00 0.09 0.09 78 992.7
20260831221546 49 13 4.0 14.0 0.00 0.09 0.09 80 992.5
20260831220044 48 307 6.0 18.0 0.00 0.09 0.09 85 992.6